| time (UTC) | temp F | wind direction | speed MPH | gust MPH | rain 1hr in | rain 24hr in | rain mn in | humidity % | barometer mb |
| 20260906082030 | 59 | 242 | 0.0 | 0.0 | 0.00 | 0.00 | 0.00 | 95 | 1018.8 |
| 20260906081526 | 59 | 239 | 0.0 | 0.0 | 0.00 | 0.00 | 0.00 | 95 | 1018.7 |
| 20260906081021 | 59 | 239 | 0.0 | 0.0 | 0.00 | 0.00 | 0.00 | 95 | 1018.8 |
| 20260906080518 | 59 | 262 | 0.0 | 0.0 | 0.00 | 0.00 | 0.00 | 95 | 1018.6 |
| 20260906080014 | 59 | 241 | 0.0 | 0.0 | 0.00 | 0.00 | 0.00 | 95 | 1018.6 |
| 20260906075508 | 60 | 236 | 0.0 | 0.0 | 0.00 | 0.00 | 0.00 | 95 | 1018.5 |
| 20260906075002 | 60 | 240 | 0.0 | 1.0 | 0.00 | 0.00 | 0.00 | 95 | 1018.6 |
| 20260906074457 | 60 | 250 | 0.0 | 0.0 | 0.00 | 0.00 | 0.00 | 95 | 1018.5 |
| 20260906073955 | 60 | 235 | 0.0 | 1.0 | 0.00 | 0.00 | 0.00 | 95 | 1018.3 |
| 20260906073450 | 60 | 241 | 0.0 | 2.0 | 0.00 | 0.00 | 0.00 | 95 | 1018.5 |
| 20260906072947 | 60 | 241 | 0.0 | 0.0 | 0.00 | 0.00 | 0.00 | 95 | 1018.4 |
| 20260906072442 | 60 | 276 | 0.0 | 1.0 | 0.00 | 0.00 | 0.00 | 95 | 1018.4 |
| 20260906071938 | 60 | 252 | 0.0 | 0.0 | 0.00 | 0.00 | 0.00 | 95 | 1018.5 |
| 20260906071433 | 60 | 248 | 0.0 | 0.0 | 0.00 | 0.00 | 0.00 | 95 | 1018.3 |
| 20260906070929 | 60 | 248 | 0.0 | 0.0 | 0.00 | 0.00 | 0.00 | 94 | 1018.3 |
| 20260906070425 | 61 | 248 | 0.0 | 0.0 | 0.00 | 0.00 | 0.00 | 94 | 1018.3 |
| 20260906065920 | 61 | 216 | 0.0 | 0.0 | 0.00 | 0.00 | 0.00 | 94 | 1018.3 |
| 20260906065415 | 61 | 200 | 0.0 | 0.0 | 0.00 | 0.00 | 0.00 | 94 | 1018.3 |
| 20260906064910 | 61 | 168 | 0.0 | 0.0 | 0.00 | 0.00 | 0.00 | 94 | 1018.1 |
| 20260906064401 | 60 | 174 | 0.0 | 0.0 | 0.00 | 0.00 | 0.00 | 95 | 1018.0 |
| 20260906063900 | 60 | 171 | 0.0 | 1.0 | 0.00 | 0.00 | 0.00 | 95 | 1018.0 |
| 20260906063356 | 60 | 207 | 0.0 | 0.0 | 0.00 | 0.00 | 0.00 | 95 | 1018.1 |
| 20260906062851 | 60 | 210 | 0.0 | 0.0 | 0.00 | 0.00 | 0.00 | 94 | 1018.0 |
| 20260906062350 | 60 | 210 | 0.0 | 0.0 | 0.00 | 0.00 | 0.00 | 94 | 1018.2 |
| 20260906061845 | 60 | 210 | 0.0 | 0.0 | 0.00 | 0.00 | 0.00 | 94 | 1018.1 |
| 20260906061336 | 61 | 210 | 0.0 | 0.0 | 0.00 | 0.00 | 0.00 | 93 | 1018.0 |
| 20260906060830 | 61 | 210 | 0.0 | 0.0 | 0.00 | 0.00 | 0.00 | 93 | 1018.2 |
| 20260906060329 | 61 | 210 | 0.0 | 0.0 | 0.00 | 0.00 | 0.00 | 92 | 1018.2 |
| 20260906055824 | 62 | 209 | 0.0 | 0.0 | 0.00 | 0.00 | 0.00 | 92 | 1018.1 |
| 20260906055319 | 62 | 200 | 0.0 | 0.0 | 0.00 | 0.00 | 0.00 | 92 | 1018.1 |
| 20260906054815 | 62 | 200 | 0.0 | 0.0 | 0.00 | 0.00 | 0.00 | 91 | 1018.3 |
| 20260906054310 | 62 | 199 | 0.0 | 0.0 | 0.00 | 0.00 | 0.00 | 91 | 1018.0 |
| 20260906053806 | 62 | 199 | 0.0 | 0.0 | 0.00 | 0.00 | 0.00 | 90 | 1018.1 |
| 20260906053301 | 62 | 199 | 0.0 | 0.0 | 0.00 | 0.00 | 0.00 | 90 | 1018.0 |
| 20260906052756 | 62 | 200 | 0.0 | 0.0 | 0.00 | 0.00 | 0.00 | 89 | 1017.9 |
| 20260906052252 | 63 | 200 | 0.0 | 0.0 | 0.00 | 0.00 | 0.00 | 88 | 1018.1 |
| 20260906051750 | 63 | 196 | 0.0 | 0.0 | 0.00 | 0.00 | 0.00 | 88 | 1018.1 |
| 20260906051249 | 64 | 212 | 0.0 | 0.0 | 0.00 | 0.00 | 0.00 | 88 | 1018.2 |
| 20260906050744 | 64 | 232 | 0.0 | 0.0 | 0.00 | 0.00 | 0.00 | 87 | 1018.2 |
| 20260906050239 | 65 | 199 | 0.0 | 1.0 | 0.00 | 0.00 | 0.00 | 86 | 1018.0 |
| 20260906045738 | 65 | 107 | 1.0 | 2.0 | 0.00 | 0.00 | 0.00 | 86 | 1018.2 |
| 20260906045233 | 65 | 94 | 1.0 | 3.0 | 0.00 | 0.00 | 0.00 | 86 | 1018.1 |
| 20260906044729 | 65 | 131 | 0.0 | 2.0 | 0.00 | 0.00 | 0.00 | 86 | 1017.9 |
| 20260906044224 | 65 | 140 | 1.0 | 1.0 | 0.00 | 0.00 | 0.00 | 86 | 1018.0 |
| 20260906043720 | 65 | 184 | 0.0 | 2.0 | 0.00 | 0.00 | 0.00 | 85 | 1018.1 |
| 20260906043216 | 65 | 91 | 2.0 | 2.0 | 0.00 | 0.00 | 0.00 | 83 | 1018.0 |
| 20260906042715 | 66 | 274 | 1.0 | 2.0 | 0.00 | 0.00 | 0.00 | 82 | 1018.1 |
| 20260906042214 | 66 | 106 | 0.0 | 3.0 | 0.00 | 0.00 | 0.00 | 80 | 1018.0 |
| 20260906041710 | 66 | 92 | 2.0 | 2.0 | 0.00 | 0.00 | 0.00 | 80 | 1017.8 |
| 20260906041205 | 66 | 38 | 3.0 | 3.0 | 0.00 | 0.00 | 0.00 | 79 | 1017.9 |
| 20260906040701 | 66 | 110 | 1.0 | 3.0 | 0.00 | 0.00 | 0.00 | 79 | 1017.9 |
| 20260906040156 | 67 | 64 | 3.0 | 3.0 | 0.00 | 0.00 | 0.00 | 79 | 1018.0 |
| 20260906035651 | 67 | 81 | 3.0 | 6.0 | 0.00 | 0.06 | 0.06 | 78 | 1017.7 |
| 20260906035147 | 67 | 74 | 3.0 | 6.0 | 0.00 | 0.06 | 0.06 | 77 | 1017.8 |
| 20260906034641 | 67 | 55 | 3.0 | 5.0 | 0.00 | 0.06 | 0.06 | 78 | 1017.7 |
| 20260906034136 | 68 | 49 | 3.0 | 6.0 | 0.00 | 0.06 | 0.06 | 79 | 1018.0 |
| 20260906033632 | 68 | 46 | 2.0 | 6.0 | 0.00 | 0.06 | 0.06 | 79 | 1018.1 |
| 20260906033126 | 68 | 93 | 1.0 | 5.0 | 0.00 | 0.06 | 0.06 | 79 | 1017.7 |
| 20260906032623 | 68 | 62 | 5.0 | 7.0 | 0.00 | 0.06 | 0.06 | 80 | 1017.8 |
| 20260906032122 | 68 | 68 | 3.0 | 6.0 | 0.00 | 0.06 | 0.06 | 80 | 1017.8 |
| 20260906031618 | 68 | 64 | 2.0 | 6.0 | 0.00 | 0.06 | 0.06 | 81 | 1017.7 |
| 20260906031113 | 68 | 71 | 4.0 | 6.0 | 0.00 | 0.06 | 0.06 | 83 | 1017.8 |
| 20260906030612 | 68 | 62 | 2.0 | 3.0 | 0.00 | 0.06 | 0.06 | 85 | 1017.7 |
| 20260906030108 | 68 | 69 | 3.0 | 3.0 | 0.00 | 0.06 | 0.06 | 86 | 1017.6 |
| 20260906025607 | 68 | 55 | 2.0 | 3.0 | 0.00 | 0.06 | 0.06 | 88 | 1017.8 |
| 20260906025106 | 68 | 111 | 1.0 | 2.0 | 0.00 | 0.06 | 0.06 | 91 | 1017.4 |
| 20260906024601 | 68 | 141 | 0.0 | 1.0 | 0.00 | 0.06 | 0.06 | 91 | 1017.6 |
| 20260906024055 | 68 | 123 | 2.0 | 2.0 | 0.00 | 0.06 | 0.06 | 91 | 1017.5 |
| 20260906023552 | 68 | 232 | 0.0 | 1.0 | 0.00 | 0.06 | 0.06 | 90 | 1017.4 |
| 20260906023046 | 68 | 153 | 0.0 | 2.0 | 0.00 | 0.06 | 0.06 | 90 | 1017.5 |
| 20260906022541 | 68 | 43 | 1.0 | 2.0 | 0.00 | 0.06 | 0.06 | 90 | 1017.4 |
| 20260906022037 | 68 | 207 | 0.0 | 1.0 | 0.00 | 0.06 | 0.06 | 89 | 1017.1 |
| 20260906021532 | 68 | 89 | 1.0 | 2.0 | 0.00 | 0.06 | 0.06 | 89 | 1017.3 |
| 20260906021031 | 68 | 105 | 2.0 | 3.0 | 0.00 | 0.06 | 0.06 | 89 | 1017.4 |
| 20260906020530 | 69 | 121 | 1.0 | 2.0 | 0.00 | 0.06 | 0.06 | 89 | 1017.3 |
| 20260906020025 | 69 | 33 | 1.0 | 2.0 | 0.00 | 0.06 | 0.06 | 89 | 1017.4 |
| 20260906015524 | 69 | 166 | 0.0 | 1.0 | 0.00 | 0.06 | 0.06 | 89 | 1017.3 |
| 20260906015024 | 69 | 81 | 1.0 | 3.0 | 0.00 | 0.06 | 0.06 | 89 | 1017.2 |
| 20260906014519 | 69 | 42 | 2.0 | 2.0 | 0.00 | 0.06 | 0.06 | 88 | 1017.4 |
| 20260906014015 | 69 | 89 | 2.0 | 2.0 | 0.00 | 0.06 | 0.06 | 88 | 1017.2 |
| 20260906013510 | 69 | 124 | 0.0 | 2.0 | 0.00 | 0.06 | 0.06 | 88 | 1017.3 |
| 20260906013006 | 69 | 101 | 1.0 | 2.0 | 0.00 | 0.06 | 0.06 | 88 | 1017.3 |
| 20260906012501 | 69 | 91 | 1.0 | 1.0 | 0.00 | 0.06 | 0.06 | 88 | 1017.2 |
| 20260906012000 | 69 | 158 | 0.0 | 1.0 | 0.00 | 0.06 | 0.06 | 88 | 1017.3 |
| 20260906011456 | 69 | 102 | 1.0 | 2.0 | 0.00 | 0.06 | 0.06 | 88 | 1016.9 |
| 20260906010950 | 69 | 153 | 0.0 | 2.0 | 0.00 | 0.06 | 0.06 | 88 | 1017.0 |
| 20260906010446 | 69 | 191 | 0.0 | 1.0 | 0.00 | 0.06 | 0.06 | 88 | 1016.8 |
| 20260906005942 | 70 | 184 | 1.0 | 2.0 | 0.00 | 0.06 | 0.06 | 88 | 1016.9 |
| 20260906005441 | 70 | 133 | 1.0 | 2.0 | 0.00 | 0.06 | 0.06 | 87 | 1017.0 |
| 20260906004940 | 70 | 200 | 1.0 | 1.0 | 0.00 | 0.06 | 0.06 | 87 | 1016.8 |
| 20260906004434 | 71 | 74 | 1.0 | 1.0 | 0.00 | 0.06 | 0.06 | 86 | 1016.9 |
| 20260906003930 | 71 | 160 | 0.0 | 1.0 | 0.00 | 0.06 | 0.06 | 86 | 1016.8 |
| 20260906003430 | 71 | 187 | 1.0 | 1.0 | 0.00 | 0.06 | 0.06 | 86 | 1017.0 |
| 20260906002926 | 71 | 93 | 1.0 | 2.0 | 0.00 | 0.06 | 0.06 | 85 | 1016.8 |
| 20260906002425 | 71 | 158 | 1.0 | 2.0 | 0.00 | 0.06 | 0.06 | 85 | 1016.9 |
| 20260906001920 | 71 | 98 | 1.0 | 3.0 | 0.00 | 0.06 | 0.06 | 85 | 1016.9 |
| 20260906001416 | 71 | 68 | 2.0 | 2.0 | 0.00 | 0.06 | 0.06 | 85 | 1016.8 |
| 20260906000911 | 71 | 60 | 3.0 | 5.0 | 0.00 | 0.06 | 0.06 | 84 | 1016.6 |
| 20260906000406 | 71 | 70 | 2.0 | 5.0 | 0.00 | 0.06 | 0.06 | 85 | 1016.6 |
| 20260905235901 | 71 | 104 | 2.0 | 5.0 | 0.00 | 0.06 | 0.06 | 84 | 1016.5 |
| 20260905235355 | 71 | 35 | 3.0 | 6.0 | 0.00 | 0.06 | 0.06 | 84 | 1016.6 |
| 20260905234850 | 71 | 101 | 2.0 | 3.0 | 0.00 | 0.06 | 0.06 | 85 | 1016.7 |
| 20260905234346 | 71 | 101 | 3.0 | 5.0 | 0.00 | 0.06 | 0.06 | 85 | 1016.5 |
| 20260905233841 | 72 | 106 | 2.0 | 3.0 | 0.00 | 0.06 | 0.06 | 85 | 1016.5 |
| 20260905233336 | 72 | 104 | 3.0 | 3.0 | 0.00 | 0.06 | 0.06 | 85 | 1016.7 |
| 20260905232835 | 72 | 70 | 2.0 | 5.0 | 0.00 | 0.06 | 0.06 | 85 | 1016.6 |
| 20260905232331 | 72 | 88 | 2.0 | 2.0 | 0.00 | 0.06 | 0.06 | 85 | 1016.5 |
| 20260905231827 | 72 | 87 | 1.0 | 5.0 | 0.00 | 0.06 | 0.06 | 85 | 1016.5 |
| 20260905231321 | 73 | 116 | 2.0 | 5.0 | 0.00 | 0.06 | 0.06 | 84 | 1016.5 |
| 20260905230818 | 73 | 85 | 2.0 | 3.0 | 0.00 | 0.06 | 0.06 | 83 | 1016.4 |
| 20260905230316 | 73 | 123 | 5.0 | 7.0 | 0.00 | 0.06 | 0.06 | 83 | 1016.5 |
| 20260905225815 | 73 | 51 | 3.0 | 8.0 | 0.00 | 0.06 | 0.06 | 82 | 1016.4 |
| 20260905225310 | 73 | 59 | 4.0 | 7.0 | 0.00 | 0.06 | 0.06 | 82 | 1016.4 |
| 20260905224810 | 73 | 65 | 4.0 | 7.0 | 0.00 | 0.06 | 0.06 | 82 | 1016.4 |
| 20260905224306 | 73 | 71 | 4.0 | 6.0 | 0.00 | 0.06 | 0.06 | 81 | 1016.3 |
| 20260905223801 | 74 | 64 | 4.0 | 6.0 | 0.00 | 0.06 | 0.06 | 80 | 1016.2 |
| 20260905223258 | 74 | 67 | 3.0 | 7.0 | 0.00 | 0.06 | 0.06 | 80 | 1016.2 |
| 20260905222753 | 74 | 46 | 5.0 | 6.0 | 0.00 | 0.06 | 0.06 | 80 | 1016.3 |
| 20260905222252 | 74 | 78 | 3.0 | 5.0 | 0.00 | 0.06 | 0.06 | 80 | 1016.1 |
| 20260905221748 | 74 | 117 | 4.0 | 6.0 | 0.00 | 0.06 | 0.06 | 79 | 1016.1 |
| 20260905221245 | 74 | 83 | 3.0 | 8.0 | 0.00 | 0.06 | 0.06 | 79 | 1016.0 |
| 20260905220740 | 74 | 70 | 5.0 | 7.0 | 0.00 | 0.06 | 0.06 | 78 | 1016.1 |
| 20260905220236 | 74 | 61 | 4.0 | 6.0 | 0.00 | 0.06 | 0.06 | 79 | 1016.0 |
| 20260905215736 | 74 | 75 | 3.0 | 8.0 | 0.00 | 0.06 | 0.06 | 79 | 1016.2 |
| 20260905215231 | 75 | 98 | 5.0 | 8.0 | 0.00 | 0.06 | 0.06 | 78 | 1016.1 |
| 20260905214727 | 75 | 49 | 4.0 | 7.0 | 0.00 | 0.06 | 0.06 | 78 | 1016.1 |
| 20260905214222 | 75 | 105 | 5.0 | 8.0 | 0.00 | 0.06 | 0.06 | 78 | 1015.8 |
| 20260905213718 | 75 | 58 | 3.0 | 8.0 | 0.00 | 0.06 | 0.06 | 78 | 1015.9 |
| 20260905213214 | 74 | 81 | 5.0 | 8.0 | 0.00 | 0.06 | 0.06 | 78 | 1016.0 |
| 20260905212709 | 74 | 44 | 5.0 | 8.0 | 0.00 | 0.06 | 0.06 | 77 | 1015.9 |
| 20260905212208 | 74 | 40 | 5.0 | 7.0 | 0.00 | 0.06 | 0.06 | 77 | 1015.9 |
| 20260905211703 | 74 | 71 | 5.0 | 9.0 | 0.00 | 0.06 | 0.06 | 76 | 1015.8 |
| 20260905211158 | 74 | 115 | 6.0 | 9.0 | 0.00 | 0.06 | 0.06 | 79 | 1015.7 |
| 20260905210655 | 75 | 107 | 6.0 | 9.0 | 0.00 | 0.06 | 0.06 | 81 | 1015.9 |
| 20260905210154 | 75 | 57 | 6.0 | 9.0 | 0.00 | 0.06 | 0.06 | 82 | 1015.8 |
| 20260905205653 | 75 | 84 | 5.0 | 8.0 | 0.00 | 0.06 | 0.06 | 83 | 1015.8 |
| 20260905205153 | 75 | 45 | 4.0 | 11.0 | 0.00 | 0.06 | 0.06 | 83 | 1015.7 |
| 20260905204653 | 75 | 75 | 4.0 | 8.0 | 0.00 | 0.06 | 0.06 | 82 | 1016.0 |
| 20260905204148 | 75 | 128 | 6.0 | 9.0 | 0.00 | 0.06 | 0.06 | 82 | 1015.8 |
| 20260905203643 | 75 | 118 | 4.0 | 9.0 | 0.00 | 0.06 | 0.06 | 83 | 1015.9 |
| 20260905203138 | 75 | 38 | 4.0 | 9.0 | 0.00 | 0.06 | 0.06 | 83 | 1016.2 |
| 20260905202634 | 75 | 86 | 4.0 | 5.0 | 0.00 | 0.06 | 0.06 | 84 | 1016.3 |
| 20260905202129 | 75 | 42 | 6.0 | 9.0 | 0.00 | 0.06 | 0.06 | 84 | 1016.3 |
| 20260905201625 | 75 | 85 | 7.0 | 8.0 | 0.00 | 0.06 | 0.06 | 83 | 1016.3 |
| 20260905201124 | 75 | 97 | 3.0 | 6.0 | 0.00 | 0.06 | 0.06 | 84 | 1016.2 |
| 20260905200620 | 74 | 70 | 5.0 | 9.0 | 0.00 | 0.06 | 0.06 | 86 | 1016.2 |
| 20260905200115 | 74 | 28 | 3.0 | 6.0 | 0.00 | 0.06 | 0.06 | 88 | 1016.2 |
| 20260905195613 | 74 | 68 | 5.0 | 7.0 | 0.00 | 0.06 | 0.06 | 87 | 1016.2 |
| 20260905195109 | 74 | 73 | 4.0 | 7.0 | 0.00 | 0.06 | 0.06 | 89 | 1016.2 |
| 20260905194609 | 73 | 106 | 5.0 | 6.0 | 0.00 | 0.06 | 0.06 | 89 | 1016.3 |
| 20260905194108 | 73 | 54 | 4.0 | 6.0 | 0.00 | 0.06 | 0.06 | 90 | 1016.4 |
| 20260905193603 | 73 | 88 | 5.0 | 8.0 | 0.00 | 0.06 | 0.06 | 90 | 1016.3 |
| 20260905193058 | 73 | 41 | 3.0 | 9.0 | 0.00 | 0.06 | 0.06 | 90 | 1016.3 |
| 20260905192553 | 73 | 75 | 7.0 | 11.0 | 0.00 | 0.06 | 0.06 | 90 | 1016.0 |
| 20260905192050 | 73 | 63 | 4.0 | 6.0 | 0.00 | 0.06 | 0.06 | 90 | 1016.3 |
| 20260905191548 | 73 | 77 | 2.0 | 6.0 | 0.00 | 0.06 | 0.06 | 89 | 1016.3 |
| 20260905191048 | 74 | 33 | 4.0 | 7.0 | 0.00 | 0.06 | 0.06 | 89 | 1016.4 |
| 20260905190546 | 74 | 59 | 3.0 | 10.0 | 0.00 | 0.06 | 0.06 | 89 | 1016.3 |
| 20260905190040 | 74 | 79 | 4.0 | 5.0 | 0.00 | 0.06 | 0.06 | 89 | 1016.3 |
| 20260905185539 | 74 | 54 | 3.0 | 6.0 | 0.00 | 0.06 | 0.06 | 89 | 1016.3 |
| 20260905185038 | 74 | 55 | 2.0 | 7.0 | 0.00 | 0.06 | 0.06 | 89 | 1016.2 |
| 20260905184533 | 74 | 59 | 4.0 | 9.0 | 0.00 | 0.06 | 0.06 | 90 | 1016.3 |
| 20260905184032 | 74 | 62 | 3.0 | 8.0 | 0.00 | 0.06 | 0.06 | 89 | 1016.2 |
| 20260905183532 | 74 | 86 | 5.0 | 6.0 | 0.00 | 0.06 | 0.06 | 89 | 1016.1 |
| 20260905183027 | 75 | 71 | 4.0 | 9.0 | 0.00 | 0.06 | 0.06 | 89 | 1016.1 |
| 20260905182526 | 75 | 87 | 3.0 | 5.0 | 0.00 | 0.06 | 0.06 | 89 | 1016.2 |
| 20260905182021 | 75 | 58 | 3.0 | 6.0 | 0.00 | 0.06 | 0.06 | 89 | 1016.2 |
| 20260905181516 | 75 | 69 | 2.0 | 5.0 | 0.00 | 0.06 | 0.06 | 88 | 1016.2 |
| 20260905181015 | 75 | 101 | 3.0 | 6.0 | 0.00 | 0.06 | 0.06 | 88 | 1016.1 |
| 20260905180510 | 75 | 59 | 4.0 | 6.0 | 0.00 | 0.06 | 0.06 | 88 | 1016.1 |
| 20260905180005 | 75 | 88 | 3.0 | 6.0 | 0.00 | 0.06 | 0.06 | 87 | 1016.1 |
| 20260905175504 | 75 | 99 | 3.0 | 6.0 | 0.00 | 0.06 | 0.06 | 88 | 1016.0 |
| 20260905175000 | 75 | 88 | 5.0 | 8.0 | 0.00 | 0.06 | 0.06 | 88 | 1016.1 |
| 20260905174455 | 75 | 95 | 3.0 | 6.0 | 0.00 | 0.06 | 0.06 | 89 | 1016.2 |
| 20260905173951 | 75 | 34 | 5.0 | 8.0 | 0.00 | 0.06 | 0.06 | 89 | 1016.0 |
| 20260905173447 | 75 | 64 | 4.0 | 7.0 | 0.00 | 0.06 | 0.06 | 90 | 1016.1 |
| 20260905172942 | 75 | 64 | 3.0 | 3.0 | 0.00 | 0.06 | 0.06 | 90 | 1016.1 |
| 20260905172440 | 75 | 45 | 4.0 | 7.0 | 0.00 | 0.06 | 0.06 | 90 | 1015.9 |
| 20260905171936 | 75 | 29 | 3.0 | 7.0 | 0.00 | 0.06 | 0.06 | 90 | 1016.2 |
| 20260905171433 | 75 | 61 | 2.0 | 6.0 | 0.00 | 0.06 | 0.06 | 91 | 1016.3 |
| 20260905170929 | 75 | 41 | 1.0 | 6.0 | 0.00 | 0.06 | 0.06 | 91 | 1016.3 |
| 20260905170425 | 75 | 66 | 3.0 | 3.0 | 0.00 | 0.06 | 0.06 | 91 | 1016.2 |
| 20260905165924 | 75 | 51 | 2.0 | 5.0 | 0.00 | 0.06 | 0.06 | 91 | 1016.4 |
| 20260905165419 | 75 | 50 | 3.0 | 5.0 | 0.00 | 0.06 | 0.06 | 91 | 1016.4 |
| 20260905164914 | 75 | 76 | 3.0 | 5.0 | 0.00 | 0.06 | 0.06 | 90 | 1016.6 |
| 20260905164408 | 76 | 269 | 1.0 | 5.0 | 0.00 | 0.06 | 0.06 | 89 | 1016.5 |
| 20260905163904 | 76 | 124 | 3.0 | 6.0 | 0.00 | 0.06 | 0.06 | 88 | 1016.4 |
| 20260905163401 | 76 | 51 | 1.0 | 3.0 | 0.00 | 0.06 | 0.06 | 89 | 1016.2 |
| 20260905162856 | 76 | 131 | 4.0 | 6.0 | 0.00 | 0.06 | 0.06 | 89 | 1016.1 |
| 20260905162356 | 76 | 10 | 1.0 | 6.0 | 0.00 | 0.06 | 0.06 | 89 | 1016.2 |
| 20260905161851 | 77 | 102 | 3.0 | 5.0 | 0.00 | 0.06 | 0.06 | 89 | 1016.3 |
| 20260905161350 | 77 | 135 | 4.0 | 5.0 | 0.00 | 0.06 | 0.06 | 88 | 1016.2 |
| 20260905160849 | 78 | 48 | 3.0 | 3.0 | 0.00 | 0.06 | 0.06 | 87 | 1016.2 |
| 20260905160343 | 77 | 180 | 3.0 | 5.0 | 0.00 | 0.06 | 0.06 | 88 | 1016.2 |
| 20260905155843 | 77 | 76 | 3.0 | 6.0 | 0.00 | 0.06 | 0.06 | 89 | 1016.2 |
| 20260905155337 | 77 | 63 | 4.0 | 6.0 | 0.00 | 0.06 | 0.06 | 88 | 1016.2 |
| 20260905154836 | 77 | 151 | 1.0 | 5.0 | 0.00 | 0.06 | 0.06 | 88 | 1016.2 |
| 20260905154332 | 76 | 69 | 3.0 | 5.0 | 0.00 | 0.06 | 0.06 | 89 | 1016.2 |
| 20260905153827 | 77 | 176 | 0.0 | 5.0 | 0.00 | 0.06 | 0.06 | 89 | 1016.1 |
| 20260905153324 | 76 | 249 | 1.0 | 2.0 | 0.00 | 0.06 | 0.06 | 89 | 1016.0 |
| 20260905152823 | 77 | 304 | 2.0 | 3.0 | 0.00 | 0.06 | 0.06 | 87 | 1016.0 |
| 20260905152322 | 78 | 72 | 2.0 | 5.0 | 0.00 | 0.06 | 0.06 | 84 | 1016.0 |
| 20260905151818 | 78 | 5 | 2.0 | 3.0 | 0.00 | 0.06 | 0.06 | 83 | 1016.1 |
| 20260905151314 | 78 | 140 | 2.0 | 2.0 | 0.00 | 0.06 | 0.06 | 84 | 1016.1 |
| 20260905150814 | 78 | 239 | 0.0 | 3.0 | 0.00 | 0.06 | 0.06 | 83 | 1016.0 |
| 20260905150314 | 77 | 244 | 1.0 | 2.0 | 0.00 | 0.06 | 0.06 | 84 | 1016.0 |
| 20260905145811 | 76 | 26 | 2.0 | 3.0 | 0.00 | 0.06 | 0.06 | 85 | 1016.0 |
| 20260905145310 | 76 | 313 | 2.0 | 3.0 | 0.00 | 0.06 | 0.06 | 85 | 1015.8 |
| 20260905144809 | 77 | 73 | 3.0 | 3.0 | 0.00 | 0.06 | 0.06 | 87 | 1015.7 |
| 20260905144306 | 77 | 345 | 2.0 | 3.0 | 0.00 | 0.06 | 0.06 | 85 | 1015.7 |
| 20260905143804 | 76 | 151 | 2.0 | 3.0 | 0.00 | 0.06 | 0.06 | 84 | 1015.7 |
| 20260905143259 | 76 | 82 | 1.0 | 2.0 | 0.00 | 0.06 | 0.06 | 86 | 1015.7 |
| 20260905142757 | 76 | 151 | 1.0 | 1.0 | 0.00 | 0.06 | 0.06 | 87 | 1015.5 |
| 20260905142251 | 75 | 86 | 2.0 | 3.0 | 0.00 | 0.06 | 0.06 | 87 | 1015.5 |
| 20260905141748 | 75 | 66 | 1.0 | 2.0 | 0.00 | 0.06 | 0.06 | 89 | 1015.5 |
| 20260905141243 | 74 | 70 | 2.0 | 3.0 | 0.00 | 0.06 | 0.06 | 89 | 1015.6 |
| 20260905140738 | 73 | 79 | 1.0 | 2.0 | 0.00 | 0.06 | 0.06 | 89 | 1015.6 |
| 20260905140233 | 73 | 90 | 1.0 | 1.0 | 0.00 | 0.06 | 0.06 | 89 | 1015.7 |
| 20260905135732 | 73 | 205 | 0.0 | 1.0 | 0.00 | 0.06 | 0.06 | 90 | 1015.6 |
| 20260905135228 | 73 | 229 | 0.0 | 0.0 | 0.00 | 0.06 | 0.06 | 92 | 1015.5 |
| 20260905134727 | 72 | 245 | 0.0 | 1.0 | 0.00 | 0.06 | 0.06 | 93 | 1015.8 |
| 20260905134227 | 72 | 213 | 0.0 | 1.0 | 0.00 | 0.06 | 0.06 | 93 | 1015.7 |
| 20260905133722 | 72 | 219 | 0.0 | 0.0 | 0.00 | 0.06 | 0.06 | 94 | 1015.9 |
| 20260905133217 | 72 | 249 | 0.0 | 0.0 | 0.00 | 0.06 | 0.06 | 95 | 1015.7 |
| 20260905132716 | 71 | 272 | 1.0 | 2.0 | 0.00 | 0.06 | 0.06 | 96 | 1015.9 |
| 20260905132212 | 71 | 256 | 1.0 | 1.0 | 0.00 | 0.06 | 0.06 | 97 | 1016.1 |
| 20260905131706 | 70 | 233 | 1.0 | 2.0 | 0.00 | 0.06 | 0.06 | 97 | 1015.9 |
| 20260905131202 | 70 | 245 | 3.0 | 3.0 | 0.00 | 0.06 | 0.06 | 97 | 1015.8 |
| 20260905130656 | 70 | 235 | 1.0 | 3.0 | 0.00 | 0.06 | 0.06 | 98 | 1016.0 |
| 20260905130156 | 70 | 272 | 1.0 | 2.0 | 0.00 | 0.06 | 0.06 | 99 | 1015.9 |
| 20260905125650 | 70 | 223 | 0.0 | 2.0 | 0.00 | 0.06 | 0.06 | 99 | 1015.8 |
| 20260905125146 | 70 | 242 | 2.0 | 5.0 | 0.00 | 0.06 | 0.06 | 99 | 1015.7 |
| 20260905124642 | 69 | 244 | 2.0 | 5.0 | 0.00 | 0.06 | 0.06 | 99 | 1015.8 |
| 20260905124138 | 69 | 256 | 3.0 | 5.0 | 0.00 | 0.06 | 0.06 | 99 | 1015.9 |
| 20260905123633 | 69 | 248 | 1.0 | 3.0 | 0.00 | 0.06 | 0.06 | 99 | 1016.1 |
| 20260905123130 | 69 | 243 | 2.0 | 2.0 | 0.00 | 0.06 | 0.06 | 99 | 1015.9 |
| 20260905122629 | 69 | 263 | 3.0 | 3.0 | 0.00 | 0.06 | 0.06 | 99 | 1015.9 |
| 20260905122125 | 69 | 263 | 3.0 | 3.0 | 0.00 | 0.06 | 0.06 | 99 | 1015.8 |
| 20260905121619 | 69 | 249 | 2.0 | 2.0 | 0.00 | 0.06 | 0.06 | 99 | 1015.8 |
| 20260905121114 | 69 | 239 | 2.0 | 5.0 | 0.00 | 0.06 | 0.06 | 99 | 1015.7 |
| 20260905120614 | 69 | 238 | 3.0 | 3.0 | 0.00 | 0.06 | 0.06 | 99 | 1015.7 |
| 20260905120109 | 69 | 235 | 2.0 | 3.0 | 0.00 | 0.06 | 0.06 | 99 | 1015.7 |
| 20260905115608 | 69 | 237 | 1.0 | 2.0 | 0.00 | 0.06 | 0.06 | 99 | 1015.4 |
| 20260905115103 | 69 | 230 | 0.0 | 0.0 | 0.00 | 0.06 | 0.06 | 99 | 1015.5 |
| 20260905114602 | 69 | 224 | 0.0 | 1.0 | 0.00 | 0.06 | 0.06 | 99 | 1015.2 |
| 20260905114101 | 69 | 222 | 0.0 | 0.0 | 0.00 | 0.06 | 0.06 | 99 | 1015.0 |
| 20260905113556 | 69 | 222 | 0.0 | 0.0 | 0.00 | 0.06 | 0.06 | 99 | 1015.1 |
| 20260905113051 | 69 | 222 | 0.0 | 0.0 | 0.00 | 0.06 | 0.06 | 99 | 1015.2 |
| 20260905112546 | 69 | 231 | 0.0 | 0.0 | 0.00 | 0.06 | 0.06 | 99 | 1015.5 |
| 20260905112042 | 69 | 231 | 0.0 | 0.0 | 0.00 | 0.06 | 0.06 | 99 | 1015.4 |
| 20260905111537 | 69 | 228 | 0.0 | 0.0 | 0.00 | 0.06 | 0.06 | 99 | 1015.4 |
| 20260905111036 | 69 | 219 | 1.0 | 1.0 | 0.00 | 0.06 | 0.06 | 99 | 1015.1 |
| 20260905110536 | 69 | 227 | 0.0 | 0.0 | 0.00 | 0.06 | 0.06 | 99 | 1015.2 |
| 20260905110031 | 69 | 219 | 0.0 | 0.0 | 0.00 | 0.06 | 0.06 | 99 | 1015.2 |
| 20260905105530 | 69 | 220 | 0.0 | 0.0 | 0.00 | 0.06 | 0.06 | 99 | 1014.9 |
| 20260905105030 | 69 | 207 | 0.0 | 0.0 | 0.00 | 0.06 | 0.06 | 99 | 1015.0 |
| 20260905104526 | 69 | 158 | 0.0 | 2.0 | 0.00 | 0.06 | 0.06 | 99 | 1014.8 |
| 20260905104025 | 69 | 114 | 1.0 | 2.0 | 0.00 | 0.06 | 0.06 | 99 | 1014.9 |
| 20260905103521 | 69 | 173 | 1.0 | 1.0 | 0.00 | 0.06 | 0.06 | 99 | 1014.9 |
| 20260905103017 | 69 | 168 | 0.0 | 0.0 | 0.00 | 0.06 | 0.06 | 99 | 1014.8 |
| 20260905102512 | 69 | 164 | 0.0 | 1.0 | 0.00 | 0.06 | 0.06 | 99 | 1014.9 |
| 20260905102009 | 69 | 217 | 0.0 | 0.0 | 0.00 | 0.06 | 0.06 | 99 | 1015.2 |
| 20260905101507 | 69 | 216 | 0.0 | 0.0 | 0.00 | 0.06 | 0.06 | 99 | 1015.2 |
| 20260905101005 | 69 | 225 | 0.0 | 0.0 | 0.00 | 0.06 | 0.06 | 99 | 1015.6 |
| 20260905100502 | 69 | 235 | 0.0 | 0.0 | 0.00 | 0.06 | 0.06 | 99 | 1015.6 |
| 20260905100001 | 69 | 235 | 0.0 | 0.0 | 0.00 | 0.06 | 0.06 | 99 | 1015.5 |
| 20260905095456 | 69 | 245 | 1.0 | 1.0 | 0.00 | 0.06 | 0.06 | 99 | 1015.2 |
| 20260905094951 | 69 | 242 | 0.0 | 1.0 | 0.00 | 0.06 | 0.06 | 99 | 1015.6 |
| 20260905094446 | 69 | 247 | 2.0 | 2.0 | 0.00 | 0.06 | 0.06 | 99 | 1015.6 |
| 20260905093945 | 69 | 228 | 3.0 | 3.0 | 0.00 | 0.06 | 0.06 | 99 | 1015.6 |
| 20260905093440 | 69 | 232 | 2.0 | 3.0 | 0.00 | 0.06 | 0.06 | 99 | 1015.5 |
| 20260905092936 | 70 | 230 | 4.0 | 7.0 | 0.00 | 0.06 | 0.06 | 99 | 1015.7 |
| 20260905092431 | 71 | 217 | 3.0 | 5.0 | 0.00 | 0.06 | 0.06 | 99 | 1015.8 |
| 20260905091926 | 71 | 227 | 1.0 | 2.0 | 0.00 | 0.06 | 0.06 | 99 | 1016.0 |
| 20260905091421 | 71 | 234 | 2.0 | 3.0 | 0.00 | 0.06 | 0.06 | 99 | 1016.0 |
| 20260905090920 | 71 | 218 | 1.0 | 2.0 | 0.00 | 0.06 | 0.06 | 99 | 1015.9 |
| 20260905090416 | 71 | 203 | 1.0 | 1.0 | 0.00 | 0.06 | 0.06 | 99 | 1015.9 |
| 20260905085915 | 71 | 217 | 1.0 | 2.0 | 0.00 | 0.06 | 0.06 | 99 | 1015.9 |
| 20260905085414 | 71 | 224 | 0.0 | 0.0 | 0.00 | 0.06 | 0.06 | 99 | 1016.0 |
| 20260905084910 | 71 | 219 | 0.0 | 0.0 | 0.00 | 0.06 | 0.06 | 99 | 1015.9 |
| 20260905084409 | 71 | 237 | 0.0 | 0.0 | 0.00 | 0.06 | 0.06 | 99 | 1016.2 |
| 20260905083904 | 71 | 222 | 0.0 | 0.0 | 0.00 | 0.06 | 0.06 | 99 | 1016.1 |
| 20260905083400 | 71 | 226 | 2.0 | 2.0 | 0.00 | 0.06 | 0.06 | 99 | 1016.1 |
| 20260905082856 | 71 | 224 | 2.0 | 2.0 | 0.00 | 0.06 | 0.06 | 99 | 1016.1 |
| 20260905082352 | 71 | 229 | 1.0 | 2.0 | 0.00 | 0.06 | 0.06 | 99 | 1016.3 |